GFSGBSN_prec_snow_225.txt.gz
Snowfall_Accumulation
0.0 0.0 0.0 0.0 0.0 0.0 0.0 0.0 0.0 0.0 0.0 0.0 0.0 0.0 0.0 0.0 0.0 0.0 0.0 0.0 0.0 0.0 0.0 0.0 0.0 0.0 0.0 0.0 0.0 0.0 0.0 0.0 0.0 0.0 0.0 0.0 0.0 0.0 0.0 0.0 0.0 0.0 0.0 0.0 0.0 0.0 0.0
0.0 0.0 0.0 0.0 0.0 0.0 0.0 0.0 0.0 0.0 0.0 0.0 0.0 0.0 0.0 0.0 0.0 0.0 0.0 0.0 0.0 0.0 0.0 0.0 0.0 0.0 0.0 0.0 0.0 0.0 0.0 0.0 0.0 0.0 0.0 0.0 0.0 0.0 0.0 0.0 0.0 0.0 0.0 0.0 0.0 0.0 0.0
0.0 0.0 0.0 0.0 0.0 0.0 0.0 0.0 0.0 0.0 0.0 0.0 0.0 0.0 0.0 0.0 0.0 0.0 0.0 0.0 0.0 0.0 0.0 0.0 0.0 0.0 0.0 0.0 0.0 0.0 0.0 0.0 0.0 0.0 0.0 0.0 0.0 0.0 0.0 0.0 0.0 0.0 0.0 0.0 0.0 0.0 0.0
0.0 0.0 0.0 0.0 0.0 0.0 0.0 0.0 0.0 0.0 0.0 0.0 0.0 0.0 0.0 0.0 0.0 0.0 0.0 0.0 0.0 0.0 0.0 0.0 0.0 0.0 0.0 0.0 0.0 0.0 0.0 0.0 0.0 0.0 0.0 0.0 0.0 0.0 0.0 0.0 0.0 0.0 0.0 0.0 0.0 0.0 0.0
0.0 0.0 0.0 0.0 0.0 0.0 0.0 0.0 0.0 0.0 0.0 0.0 0.0 0.0 0.0 0.0 0.0 0.0 0.0 0.0 0.0 0.0 0.0 0.0 0.0 0.0 0.0 0.0 0.0 0.0 0.0 0.0 0.0 0.0 0.0 0.0 0.0 0.0 0.0 0.0 0.0 0.0 0.0 0.0 0.0 0.0 0.0
0.0 0.0 0.0 0.0 0.0 0.0 0.0 0.0 0.0 0.0 0.0 0.0 0.0 0.0 0.0 0.0 0.0 0.0 0.0 0.0 0.0 0.0 0.0 0.0 0.0 0.0 0.0 0.0 0.0 0.0 0.0 0.0 0.0 0.0 0.0 0.0 0.0 0.0 0.0 0.0 0.0 0.0 0.0 0.0 0.0 0.0 0.0
0.0 0.0 0.0 0.0 0.0 0.0 0.0 0.0 0.0 0.0 0.0 0.0 0.0 0.0 0.0 0.0 0.0 0.0 0.0 0.0 0.0 0.0 0.0 0.0 0.0 0.0 0.0 0.0 0.0 0.0 0.0 0.0 0.0 0.0 0.0 0.0 0.0 0.0 0.0 0.0 0.0 0.0 0.0 0.0 0.0 0.0 0.0
0.0 0.0 0.0 0.0 0.0 0.0 0.0 0.0 0.0 0.0 0.0 0.0 0.0 0.0 0.0 0.0 0.0 0.0 0.0 0.0 0.0 0.0 0.0 0.0 0.0 0.0 0.0 0.0 0.0 0.0 0.0 0.0 0.0 0.0 0.0 0.0 0.0 0.0 0.0 0.0 0.0 0.0 0.0 0.0 0.0 0.0 0.0
0.0 0.0 0.0 0.0 0.0 0.0 0.0 0.0 0.0 0.0 0.0 0.0 0.0 0.0 0.0 0.0 0.0 0.0 0.0 0.0 0.0 0.0 0.0 0.0 0.0 0.0 0.0 0.0 0.0 0.0 0.0 0.0 0.0 0.0 0.0 0.0 0.0 0.0 0.0 0.0 0.0 0.0 0.0 0.0 0.0 0.0 0.0
0.0 0.0 0.0 0.0 0.0 0.0 0.0 0.0 0.0 0.0 0.0 0.0 0.0 0.0 0.0 0.0 0.0 0.0 0.0 0.0 0.0 0.0 2.6 0.0 0.0 0.0 0.0 0.0 0.0 0.0 0.0 0.0 0.0 0.0 0.0 0.0 0.0 0.0 0.0 0.0 0.0 0.0 0.0 0.0 0.0 0.0 0.0
0.0 0.0 0.0 0.0 0.0 0.0 0.0 0.0 0.0 0.0 0.0 0.0 0.0 0.0 0.0 0.0 0.0 0.0 0.0 0.0 0.0 0.0 60.7 0.0 0.0 0.0 0.0 0.0 0.0 0.0 0.0 0.0 0.0 0.0 0.0 0.0 0.0 0.0 0.0 0.0 0.0 0.0 0.0 0.0 0.0 0.0 0.0
0.0 0.0 0.0 0.0 0.0 0.0 0.0 0.0 0.0 0.0 0.0 0.0 0.0 0.0 0.0 0.0 0.0 0.0 0.0 0.0 0.0 42.6 56.4 0.1 0.0 0.0 0.0 0.0 0.0 0.0 0.0 0.0 0.0 0.0 0.0 0.0 0.0 0.0 0.0 0.0 0.0 0.0 0.0 0.0 0.0 0.0 0.0
0.0 0.0 0.0 0.0 0.0 0.0 0.0 0.0 0.0 0.0 0.0 0.0 0.0 0.0 0.0 0.0 0.0 0.0 0.0 0.0 47.4 67.0 0.0 0.0 0.0 0.0 0.0 0.0 0.0 0.0 0.0 0.0 0.4 0.9 0.1 0.0 0.0 0.0 0.0 0.0 0.0 0.0 0.0 0.5 1.0 0.2 0.0
0.0 0.0 0.0 0.0 0.0 0.0 0.0 0.0 0.0 0.0 0.0 0.0 0.0 0.0 0.0 0.0 0.0 0.0 0.0 11.3 68.2 2.5 0.1 0.0 0.0 0.0 0.3 0.0 0.0 0.0 0.0 0.4 0.0 0.1 0.8 0.2 0.0 0.0 0.0 0.0 0.1 0.0 0.0 1.2 3.3 0.6 0.0
0.0 0.0 0.0 0.0 0.0 0.0 0.0 0.0 0.0 0.0 0.0 0.0 0.0 0.0 0.0 0.0 0.0 0.0 4.7 63.0 46.2 0.7 0.7 0.3 0.0 0.1 0.1 0.4 0.0 0.2 0.7 3.2 3.3 2.1 4.7 2.2 0.4 0.0 0.0 0.0 0.2 0.8 0.3 0.3 3.0 0.4 0.3
0.0 0.0 0.0 0.0 0.0 0.0 0.0 0.0 0.0 0.0 0.0 0.0 0.0 0.0 0.0 0.0 0.0 0.0 19.8 41.0 7.7 0.0 0.1 0.1 0.7 0.4 0.8 0.5 0.6 1.6 4.3 3.7 1.7 2.8 3.8 3.2 2.1 0.0 0.0 0.0 0.0 0.9 0.0 1.6 1.6 3.9 1.6
0.0 0.0 0.0 0.0 0.0 0.0 0.0 0.0 0.0 0.0 0.0 0.0 0.0 6.6 0.0 0.0 0.0 13.4 59.2 16.7 2.6 0.0 0.0 0.3 0.3 0.2 0.2 0.6 0.5 2.6 4.6 3.7 0.2 0.3 1.5 3.2 3.8 0.8 1.8 1.8 1.1 2.0 4.2 2.2 5.4 6.5 7.2
0.0 0.0 0.0 0.0 0.0 0.0 0.0 0.0 0.0 0.0 0.0 0.0 0.0 30.6 0.0 0.0 31.0 35.8 33.3 4.2 0.0 0.0 0.0 0.0 0.0 0.1 0.4 0.8 1.5 3.8 4.5 1.1 0.0 0.5 1.4 3.5 4.2 1.4 0.6 0.0 0.0 0.0 1.6 1.4 16.9 10.9 8.7
0.0 0.0 0.0 0.0 0.0 0.0 0.0 0.0 0.0 0.0 0.0 0.0 11.5 15.9 0.0 0.0 37.6 30.0 1.3 0.9 0.3 0.3 0.1 0.2 1.0 0.6 0.4 0.3 2.3 0.6 0.5 0.0 0.1 0.5 2.7 3.4 3.1 5.4 1.0 1.4 0.0 0.5 1.3 0.9 4.1 8.3 7.8
0.0 0.0 0.0 0.0 0.0 0.0 0.0 0.0 0.0 0.0 0.0 0.0 5.6 60.0 17.3 0.0 2.0 8.0 10.3 7.2 5.4 0.9 0.6 0.5 1.4 1.4 1.2 3.0 1.7 0.6 0.3 0.0 0.0 0.1 0.0 0.0 5.2 6.1 6.1 3.1 3.3 3.7 1.4 0.8 5.5 12.7 4.9
0.0 0.0 0.0 0.0 0.0 0.0 0.0 0.0 0.0 0.0 0.0 0.0 22.0 46.2 0.6 40.9 34.4 6.1 5.9 5.7 4.0 4.4 0.0 0.4 1.4 0.6 2.5 3.3 3.1 2.3 1.0 0.3 0.0 0.0 0.0 0.7 4.5 3.8 1.0 0.1 0.1 1.0 1.5 2.7 5.6 3.1 5.1
0.0 0.0 0.0 0.0 0.0 0.0 0.0 0.0 0.0 0.0 0.0 0.0 65.1 29.0 3.7 4.0 1.5 5.6 7.4 10.3 3.2 0.6 3.3 2.5 2.5 1.1 1.6 3.7 2.2 3.3 1.1 0.1 0.6 0.1 0.0 0.5 3.2 2.1 0.9 0.4 0.2 0.4 1.6 3.2 3.9 1.8 0.2
0.0 0.0 0.0 0.0 0.0 0.0 0.0 0.0 0.0 0.0 0.0 14.2 4.3 0.0 9.8 8.2 7.1 10.8 8.2 3.0 1.9 1.0 0.2 0.4 0.5 2.3 2.1 1.9 1.1 1.2 2.3 1.3 0.2 4.6 2.9 9.4 9.7 7.6 6.6 0.4 1.9 8.6 4.3 4.2 10.9 3.7 3.0
0.0 0.0 0.0 0.0 0.0 0.0 0.0 0.0 0.0 0.0 0.0 4.0 0.0 0.0 20.3 23.6 9.2 4.6 1.2 2.0 2.2 1.6 2.9 0.3 0.5 2.4 0.8 0.0 0.0 1.6 1.4 0.9 2.6 0.3 2.2 7.9 9.4 11.3 10.8 3.9 17.5 4.1 0.1 0.0 1.6 4.7 4.3
0.0 0.0 0.0 0.0 0.0 0.0 0.0 0.0 0.0 0.0 0.0 0.0 0.0 0.5 15.4 21.6 8.0 5.5 2.9 2.8 3.8 0.2 3.5 2.9 2.2 0.0 0.0 0.4 8.4 17.1 14.9 13.5 5.1 2.1 4.0 0.2 7.0 15.3 17.1 10.5 2.8 1.8 0.0 0.1 0.6 2.4 0.8
0.0 0.0 0.0 0.0 0.0 0.0 0.0 0.0 0.0 0.0 0.0 0.0 0.0 0.0 9.2 16.3 11.1 2.0 6.4 3.7 6.5 6.3 8.4 4.1 0.0 0.0 0.0 7.5 23.8 20.5 15.0 10.1 9.8 2.9 0.9 0.7 0.8 10.9 14.7 16.2 8.9 1.1 0.0 0.0 0.0 5.1 0.6
0.0 0.0 0.0 0.0 0.0 0.0 0.0 0.0 0.0 0.0 0.0 0.0 0.0 0.0 2.2 23.0 2.7 0.7 4.8 5.7 3.6 5.0 6.3 5.8 6.3 5.6 4.3 14.4 23.9 15.5 10.3 4.7 7.5 8.5 9.5 11.1 9.7 21.5 12.5 11.3 2.4 0.4 0.0 0.0 4.9 5.0 1.1
0.0 0.0 0.0 0.0 0.0 0.0 0.0 0.0 0.0 0.0 0.0 0.0 0.0 0.0 0.5 17.2 8.8 0.0 0.0 3.0 7.0 7.1 13.5 11.3 12.6 12.4 19.6 26.5 21.5 17.4 11.5 3.4 5.5 5.1 3.1 4.4 14.2 17.5 20.7 21.5 11.9 0.3 0.1 1.2 1.0 0.2 1.1
0.0 0.0 0.0 0.0 0.0 0.0 0.0 0.0 0.0 0.0 0.0 0.0 0.0 0.0 0.0 14.0 11.7 0.0 0.0 0.0 0.0 0.0 4.6 8.7 13.6 9.8 9.9 19.3 16.8 13.2 13.8 11.1 3.3 7.0 5.3 8.2 4.6 11.3 12.1 13.3 2.0 0.3 0.6 0.4 0.4 0.5 2.9

GFSGBSN_prec_snow_231.txt.gz
Snowfall_Accumulation
0.0 0.0 0.0 0.0 0.0 0.0 0.0 0.0 0.0 0.0 0.0 0.0 0.0 0.0 0.0 0.0 0.0 0.0 0.0 0.0 0.0 0.0 0.0 0.0 0.0 0.0 0.0 0.0 0.0 0.0 0.0 0.0 0.0 0.0 0.0 0.0 0.0 0.0 0.0 0.0 0.0 0.0 0.0 0.0 0.0 0.0 0.0
0.0 0.0 0.0 0.0 0.0 0.0 0.0 0.0 0.0 0.0 0.0 0.0 0.0 0.0 0.0 0.0 0.0 0.0 0.0 0.0 0.0 0.0 0.0 0.0 0.0 0.0 0.0 0.0 0.0 0.0 0.0 0.0 0.0 0.0 0.0 0.0 0.0 0.0 0.0 0.0 0.0 0.0 0.0 0.0 0.0 0.0 0.0
0.0 0.0 0.0 0.0 0.0 0.0 0.0 0.0 0.0 0.0 0.0 0.0 0.0 0.0 0.0 0.0 0.0 0.0 0.0 0.0 0.0 0.0 0.0 0.0 0.0 0.0 0.0 0.0 0.0 0.0 0.0 0.0 0.0 0.0 0.0 0.0 0.0 0.0 0.0 0.0 0.0 0.0 0.0 0.0 0.0 0.0 0.0
0.0 0.0 0.0 0.0 0.0 0.0 0.0 0.0 0.0 0.0 0.0 0.0 0.0 0.0 0.0 0.0 0.0 0.0 0.0 0.0 0.0 0.0 0.0 0.0 0.0 0.0 0.0 0.0 0.0 0.0 0.0 0.0 0.0 0.0 0.0 0.0 0.0 0.0 0.0 0.0 0.0 0.0 0.0 0.0 0.0 0.0 0.0
0.0 0.0 0.0 0.0 0.0 0.0 0.0 0.0 0.0 0.0 0.0 0.0 0.0 0.0 0.0 0.0 0.0 0.0 0.0 0.0 0.0 0.0 0.0 0.0 0.0 0.0 0.0 0.0 0.0 0.0 0.0 0.0 0.0 0.0 0.0 0.0 0.0 0.0 0.0 0.0 0.0 0.0 0.0 0.0 0.0 0.0 0.0
0.0 0.0 0.0 0.0 0.0 0.0 0.0 0.0 0.0 0.0 0.0 0.0 0.0 0.0 0.0 0.0 0.0 0.0 0.0 0.0 0.0 0.0 0.0 0.0 0.0 0.0 0.0 0.0 0.0 0.0 0.0 0.0 0.0 0.0 0.0 0.0 0.0 0.0 0.0 0.0 0.0 0.0 0.0 0.0 0.0 0.0 0.0
0.0 0.0 0.0 0.0 0.0 0.0 0.0 0.0 0.0 0.0 0.0 0.0 0.0 0.0 0.0 0.0 0.0 0.0 0.0 0.0 0.0 0.0 0.0 0.0 0.0 0.0 0.0 0.0 0.0 0.0 0.0 0.0 0.0 0.0 0.0 0.0 0.0 0.0 0.0 0.0 0.0 0.0 0.0 0.0 0.0 0.0 0.0
0.0 0.0 0.0 0.0 0.0 0.0 0.0 0.0 0.0 0.0 0.0 0.0 0.0 0.0 0.0 0.0 0.0 0.0 0.0 0.0 0.0 0.0 0.0 0.0 0.0 0.0 0.0 0.0 0.0 0.0 0.0 0.0 0.0 0.0 0.0 0.0 0.0 0.0 0.0 0.0 0.0 0.0 0.0 0.0 0.0 0.0 0.0
0.0 0.0 0.0 0.0 0.0 0.0 0.0 0.0 0.0 0.0 0.0 0.0 0.0 0.0 0.0 0.0 0.0 0.0 0.0 0.0 0.0 0.0 0.3 0.0 0.0 0.0 0.0 0.0 0.0 0.0 0.0 0.0 0.0 0.0 0.0 0.0 0.0 0.0 0.0 0.0 0.0 0.0 0.0 0.0 0.0 0.0 0.0
0.0 0.0 0.0 0.0 0.0 0.0 0.0 0.0 0.0 0.0 0.0 0.0 0.0 0.0 0.0 0.0 0.0 0.0 0.0 0.0 0.0 0.0 2.8 0.0 0.0 0.0 0.0 0.0 0.0 0.0 0.0 0.0 0.0 0.0 0.0 0.0 0.0 0.0 0.0 0.0 0.0 0.0 0.0 0.0 0.0 0.0 0.0
0.0 0.0 0.0 0.0 0.0 0.0 0.0 0.0 0.0 0.0 0.0 0.0 0.0 0.0 0.0 0.0 0.0 0.0 0.0 0.0 0.0 0.0 60.7 0.2 0.0 0.0 0.0 0.0 0.0 0.0 0.0 0.0 0.0 0.0 0.0 0.0 0.0 0.0 0.0 0.0 0.0 0.0 0.0 0.0 0.0 0.0 0.0
0.0 0.0 0.0 0.0 0.0 0.0 0.0 0.0 0.0 0.0 0.0 0.0 0.0 0.0 0.0 0.0 0.0 0.0 0.0 0.0 0.0 43.9 56.7 0.1 0.0 0.0 0.0 0.0 0.0 0.0 0.0 0.0 0.0 0.0 0.0 0.0 0.0 0.0 0.0 0.0 0.0 0.0 0.0 0.0 0.0 0.0 0.0
0.0 0.0 0.0 0.0 0.0 0.0 0.0 0.0 0.0 0.0 0.0 0.0 0.0 0.0 0.0 0.0 0.0 0.0 0.0 0.0 50.4 68.4 0.0 0.0 0.0 0.0 0.0 0.0 0.0 0.0 0.0 0.0 0.4 3.2 0.1 0.0 0.0 0.0 0.0 0.0 0.0 0.0 0.0 1.6 1.6 0.4 0.0
0.0 0.0 0.0 0.0 0.0 0.0 0.0 0.0 0.0 0.0 0.0 0.0 0.0 0.0 0.0 0.0 0.0 0.0 0.0 14.4 70.3 2.5 0.1 0.0 0.0 0.0 0.6 0.0 0.0 0.0 0.0 0.4 0.0 0.1 0.8 0.2 0.0 0.0 0.0 0.0 0.1 0.0 0.0 1.2 3.5 0.6 0.0
0.0 0.0 0.0 0.0 0.0 0.0 0.0 0.0 0.0 0.0 0.0 0.0 0.0 0.0 0.0 0.0 0.0 0.0 9.1 68.9 46.5 0.7 0.7 0.3 0.0 0.1 0.2 0.4 0.0 0.2 0.7 3.2 3.3 2.1 4.7 2.6 0.4 0.0 0.0 0.0 0.2 0.8 0.3 0.3 3.2 0.4 0.5
0.0 0.0 0.0 0.0 0.0 0.0 0.0 0.0 0.0 0.0 0.0 0.0 0.0 0.0 0.0 0.0 0.0 0.0 24.1 43.1 7.7 0.0 0.1 0.1 0.7 0.4 0.8 0.5 1.0 2.2 4.3 3.7 1.7 2.8 3.8 3.2 2.5 0.0 0.0 0.0 0.0 0.9 0.0 1.6 1.6 7.4 2.1
0.0 0.0 0.0 0.0 0.0 0.0 0.0 0.0 0.0 0.0 0.0 0.0 0.0 6.6 0.0 0.0 0.0 14.4 61.4 17.2 2.6 0.0 0.0 0.3 0.3 0.2 0.2 0.6 0.5 3.2 5.4 3.7 0.2 0.3 1.5 3.2 3.8 0.8 1.8 1.8 1.1 2.0 4.2 2.2 5.4 6.5 7.3
0.0 0.0 0.0 0.0 0.0 0.0 0.0 0.0 0.0 0.0 0.0 0.0 0.0 31.8 0.0 0.0 34.2 39.0 33.8 4.2 0.0 0.0 0.0 0.0 0.0 0.1 0.4 0.8 1.5 3.8 5.1 2.0 0.0 1.0 2.1 3.5 4.2 2.6 0.6 0.0 0.0 0.0 1.6 1.4 16.9 10.9 8.7
0.0 0.0 0.0 0.0 0.0 0.0 0.0 0.0 0.0 0.0 0.0 0.0 13.8 16.8 0.0 0.0 41.3 30.9 1.4 1.0 0.3 0.3 0.1 0.2 1.0 0.6 0.4 0.3 2.3 0.6 0.5 0.0 0.1 1.5 4.3 4.8 3.1 8.6 1.6 1.4 0.0 0.5 1.3 0.9 4.1 8.3 7.8
0.0 0.0 0.0 0.0 0.0 0.0 0.0 0.0 0.0 0.0 0.0 0.0 9.0 62.0 17.3 0.0 2.5 8.0 10.7 7.6 5.4 0.9 0.6 0.5 1.4 1.4 1.2 3.0 1.7 0.6 0.3 0.0 0.0 0.1 0.0 0.0 8.9 10.1 9.2 4.3 3.9 3.7 1.4 0.8 5.5 12.8 4.9
0.0 0.0 0.0 0.0 0.0 0.0 0.0 0.0 0.0 0.0 0.0 0.0 25.1 48.2 0.9 41.8 35.5 7.5 6.1 5.8 4.0 4.4 0.0 0.4 1.4 0.6 2.5 3.3 3.1 2.3 1.0 0.3 0.0 0.0 0.0 4.0 12.0 9.0 4.5 1.2 0.5 2.1 3.0 3.5 5.6 3.1 5.1
0.0 0.0 0.0 0.0 0.0 0.0 0.0 0.0 0.0 0.0 0.0 0.0 66.9 31.2 3.7 5.6 2.1 6.3 7.4 10.8 3.5 0.8 3.5 2.6 2.5 1.1 1.6 3.7 2.2 3.3 1.1 0.1 0.6 0.1 0.0 2.4 8.0 5.6 4.5 1.6 1.1 1.3 1.6 4.9 5.5 1.8 0.2
0.0 0.0 0.0 0.0 0.0 0.0 0.0 0.0 0.0 0.0 0.0 15.1 4.3 0.0 12.4 9.4 7.8 12.5 9.1 3.0 1.9 1.0 0.2 0.4 0.5 2.3 2.1 1.9 1.1 1.2 2.3 1.3 0.2 4.6 2.9 9.4 12.3 11.4 9.9 2.0 4.3 11.7 4.8 4.2 10.9 3.7 3.0
0.0 0.0 0.0 0.0 0.0 0.0 0.0 0.0 0.0 0.0 0.0 4.0 0.0 0.5 23.3 25.7 9.7 4.8 1.2 2.0 2.2 1.6 2.9 0.3 0.5 2.4 0.8 0.0 0.0 1.6 1.4 0.9 2.6 0.3 2.2 7.9 9.4 11.4 13.1 5.5 20.9 5.8 0.1 0.0 1.6 4.7 4.3
0.0 0.0 0.0 0.0 0.0 0.0 0.0 0.0 0.0 0.0 0.0 0.0 0.0 1.3 18.8 23.9 8.3 5.6 2.9 2.8 3.8 0.2 3.8 3.1 2.2 0.0 0.0 0.4 10.9 19.3 15.4 13.6 5.1 2.1 4.0 0.2 7.0 15.3 18.7 10.5 4.1 1.8 0.7 0.1 0.6 2.4 0.8
0.0 0.0 0.0 0.0 0.0 0.0 0.0 0.0 0.0 0.0 0.0 0.0 0.0 0.0 12.4 20.3 11.5 2.0 6.4 3.7 7.1 7.3 9.3 4.5 0.0 0.0 0.0 11.4 28.1 22.5 15.2 10.1 9.8 2.9 0.9 0.7 0.8 10.9 14.7 16.3 8.9 1.1 0.0 0.0 0.0 5.8 0.7
0.0 0.0 0.0 0.0 0.0 0.0 0.0 0.0 0.0 0.0 0.0 0.0 0.0 0.0 3.4 27.7 3.1 0.7 5.0 6.1 3.6 5.9 8.6 5.8 6.3 6.4 5.7 19.8 26.4 16.3 10.5 4.7 7.5 8.5 9.5 11.1 9.8 21.9 12.9 11.8 2.4 0.4 0.0 0.0 5.4 5.8 1.1
0.0 0.0 0.0 0.0 0.0 0.0 0.0 0.0 0.0 0.0 0.0 0.0 0.0 0.0 0.5 21.7 10.1 0.1 0.0 3.5 7.7 8.6 16.2 13.0 14.8 16.2 23.8 30.1 23.4 18.3 11.6 3.4 5.5 5.1 3.1 4.4 14.3 17.8 20.8 22.4 12.6 0.3 0.1 1.2 1.0 0.2 1.1
0.0 0.0 0.0 0.0 0.0 0.0 0.0 0.0 0.0 0.0 0.0 0.0 1.3 0.0 0.0 17.2 14.3 0.0 0.0 0.0 0.0 0.0 6.4 11.2 14.5 10.0 10.1 20.1 17.3 13.2 13.8 11.1 3.3 7.0 5.3 8.2 4.6 11.3 12.1 13.3 2.0 0.3 0.6 0.4 0.4 0.5 2.9

GFSGBSN_prec_snow_237.txt.gz
Snowfall_Accumulation
0.0 0.0 0.0 0.0 0.0 0.0 0.0 0.0 0.0 0.0 0.0 0.0 0.0 0.0 0.0 0.0 0.0 0.0 0.0 0.0 0.0 0.0 0.0 0.0 0.0 0.0 0.0 0.0 0.0 0.0 0.0 0.0 0.0 0.0 0.0 0.0 0.0 0.0 0.0 0.0 0.0 0.0 0.0 0.0 0.0 0.0 0.0
0.0 0.0 0.0 0.0 0.0 0.0 0.0 0.0 0.0 0.0 0.0 0.0 0.0 0.0 0.0 0.0 0.0 0.0 0.0 0.0 0.0 0.0 0.0 0.0 0.0 0.0 0.0 0.0 0.0 0.0 0.0 0.0 0.0 0.0 0.0 0.0 0.0 0.0 0.0 0.0 0.0 0.0 0.0 0.0 0.0 0.0 0.0
0.0 0.0 0.0 0.0 0.0 0.0 0.0 0.0 0.0 0.0 0.0 0.0 0.0 0.0 0.0 0.0 0.0 0.0 0.0 0.0 0.0 0.0 0.0 0.0 0.0 0.0 0.0 0.0 0.0 0.0 0.0 0.0 0.0 0.0 0.0 0.0 0.0 0.0 0.0 0.0 0.0 0.0 0.0 0.0 0.0 0.0 0.0
0.0 0.0 0.0 0.0 0.0 0.0 0.0 0.0 0.0 0.0 0.0 0.0 0.0 0.0 0.0 0.0 0.0 0.0 0.0 0.0 0.0 0.0 0.0 0.0 0.0 0.0 0.0 0.0 0.0 0.0 0.0 0.0 0.0 0.0 0.0 0.0 0.0 0.0 0.0 0.0 0.0 0.0 0.0 0.0 0.0 0.0 0.0
0.0 0.0 0.0 0.0 0.0 0.0 0.0 0.0 0.0 0.0 0.0 0.0 0.0 0.0 0.0 0.0 0.0 0.0 0.0 0.0 0.0 0.0 0.0 0.0 0.0 0.0 0.0 0.0 0.0 0.0 0.0 0.0 0.0 0.0 0.0 0.0 0.0 0.0 0.0 0.0 0.0 0.0 0.0 0.0 0.0 0.0 0.0
0.0 0.0 0.0 0.0 0.0 0.0 0.0 0.0 0.0 0.0 0.0 0.0 0.0 0.0 0.0 0.0 0.0 0.0 0.0 0.0 0.0 0.0 0.0 0.0 0.0 6.6 0.0 0.0 0.0 0.0 0.0 0.0 0.0 0.0 0.0 0.0 0.0 0.0 0.0 0.0 0.0 0.0 0.0 0.0 0.0 0.0 0.0
0.0 0.0 0.0 0.0 0.0 0.0 0.0 0.0 0.0 0.0 0.0 0.0 0.0 0.0 0.0 0.0 0.0 0.0 0.0 0.0 0.0 0.0 0.0 0.0 0.0 0.0 0.0 0.0 0.0 0.0 0.0 0.0 0.0 0.0 0.0 0.0 0.0 0.0 0.0 0.0 0.0 0.0 0.0 0.0 0.0 0.0 0.0
0.0 0.0 0.0 0.0 0.0 0.0 0.0 0.0 0.0 0.0 0.0 0.0 0.0 0.0 0.0 0.0 0.0 0.0 0.0 0.0 0.0 0.0 0.0 0.0 0.0 0.0 0.0 0.0 0.0 0.0 0.0 0.0 0.0 0.0 0.0 0.0 0.0 0.0 0.0 0.0 0.0 0.0 0.0 0.0 0.0 0.0 0.0
0.0 0.0 0.0 0.0 0.0 0.0 0.0 0.0 0.0 0.0 0.0 0.0 0.0 0.0 0.0 0.0 0.0 0.0 0.0 0.0 0.0 0.0 0.9 0.0 0.0 0.0 0.0 0.0 0.0 0.0 0.0 0.0 0.0 0.0 0.0 0.0 0.0 0.0 0.0 0.0 0.0 0.0 0.0 0.0 0.0 0.0 0.0
0.0 0.0 0.0 0.0 0.0 0.0 0.0 0.0 0.0 0.0 0.0 0.0 0.0 0.0 0.0 0.0 0.0 0.0 0.0 0.0 0.0 0.0 3.9 0.0 0.0 0.0 0.0 0.0 0.0 0.0 0.0 0.0 0.0 0.0 0.0 0.0 0.0 0.0 0.0 0.0 0.0 0.0 0.0 0.0 0.0 0.0 0.0
0.0 0.0 0.0 0.0 0.0 0.0 0.0 0.0 0.0 0.0 0.0 0.0 0.0 0.0 0.0 0.0 0.0 0.0 0.0 0.0 0.0 0.0 61.6 0.2 0.0 0.0 0.0 0.0 0.0 0.0 0.0 0.0 0.0 0.0 0.0 0.0 0.0 0.0 0.0 0.0 0.0 0.0 0.0 0.0 0.0 0.0 0.0
0.0 0.0 0.0 0.0 0.0 0.0 0.0 0.0 0.0 0.0 0.0 0.0 0.0 0.0 0.0 0.0 0.0 0.0 0.0 0.0 0.0 45.5 57.1 0.1 0.0 0.0 0.0 0.0 0.0 0.0 0.0 0.0 0.0 0.0 0.0 0.0 0.0 0.0 0.0 0.0 0.0 0.0 0.0 0.0 0.0 0.0 0.0
0.0 0.0 0.0 0.0 0.0 0.0 0.0 0.0 0.0 0.0 0.0 0.0 0.0 0.0 0.0 0.0 0.0 0.0 0.0 0.0 51.8 69.1 0.0 0.0 0.0 0.2 0.5 0.0 0.0 0.0 0.0 0.0 4.3 11.4 7.4 0.0 0.0 0.0 0.0 0.0 0.0 0.0 0.0 3.9 3.1 0.8 0.1
0.0 0.0 0.0 0.0 0.0 0.0 0.0 0.0 0.0 0.0 0.0 0.0 0.0 0.0 0.0 0.0 0.0 0.0 0.0 16.4 71.5 2.6 0.2 0.0 0.0 0.0 0.6 0.6 0.0 0.0 0.0 2.5 0.0 0.1 3.5 3.4 2.4 0.0 0.0 0.0 0.1 0.0 0.0 2.7 4.6 0.7 0.0
0.0 0.0 0.0 0.0 0.0 0.0 0.0 0.0 0.0 0.0 0.0 0.0 0.0 0.0 0.0 0.0 0.0 0.0 10.1 70.3 46.7 0.8 0.9 0.3 0.0 0.1 0.2 0.4 1.6 3.4 1.8 3.2 3.3 2.1 9.5 7.1 2.0 0.0 0.0 0.0 0.2 0.8 0.3 0.3 3.2 0.4 0.5
0.0 0.0 0.0 0.0 0.0 0.0 0.0 0.0 0.0 0.0 0.0 0.0 0.0 0.0 0.0 0.0 0.0 0.0 25.5 43.6 7.8 0.0 0.1 0.1 0.8 0.4 0.8 0.6 1.3 3.5 9.1 6.1 2.6 4.4 7.0 3.2 5.2 0.0 0.0 0.0 0.0 0.9 0.0 1.6 4.8 12.0 3.4
0.0 0.0 0.0 0.0 0.0 0.0 0.0 0.0 0.0 0.0 0.0 0.0 0.0 6.7 0.0 0.0 0.0 16.3 62.9 17.4 2.7 0.0 0.0 0.3 0.5 0.3 0.2 0.6 0.6 3.3 5.7 6.9 4.3 4.3 3.6 7.8 7.8 0.8 1.8 1.8 1.1 2.0 4.2 2.2 5.4 6.5 7.3
0.0 0.0 0.0 0.0 0.0 0.0 0.0 0.0 0.0 0.0 0.0 0.0 0.0 32.1 0.0 0.0 36.2 40.6 35.2 5.1 0.3 0.1 0.0 0.0 0.0 0.2 0.5 0.8 1.5 3.8 5.1 2.0 0.0 1.8 4.8 9.4 13.3 5.9 0.6 0.0 0.0 0.0 1.6 1.4 19.0 12.2 8.7
0.0 0.0 0.0 0.0 0.0 0.0 0.0 0.0 0.0 0.0 0.0 0.0 14.1 17.0 0.0 0.0 42.1 31.3 1.8 1.9 0.5 0.9 0.3 0.2 1.1 0.7 0.4 0.3 2.3 0.6 0.5 0.0 0.1 1.6 4.6 5.8 7.9 12.1 2.6 1.4 0.0 0.5 1.3 4.5 4.1 8.3 7.8
0.0 0.0 0.0 0.0 0.0 0.0 0.0 0.0 0.0 0.0 0.0 0.0 9.5 62.3 17.3 0.0 2.5 9.0 11.9 8.6 6.6 0.9 1.0 0.8 1.7 1.6 1.4 3.0 1.7 0.6 0.3 0.0 0.0 0.1 0.0 0.0 9.4 12.3 12.3 8.1 7.7 7.9 6.3 8.1 9.2 15.6 6.3
0.0 0.0 0.0 0.0 0.0 0.0 0.0 0.0 0.0 0.0 0.0 0.0 25.7 48.4 1.2 42.0 35.9 8.5 7.1 6.8 4.5 4.4 0.3 1.1 1.6 0.9 2.7 3.6 3.3 2.4 1.0 0.3 0.0 0.0 0.0 4.7 13.3 10.8 6.8 3.0 1.6 3.2 3.0 4.4 10.2 6.7 6.9
0.0 0.0 0.0 0.0 0.0 0.0 0.0 0.0 0.0 0.0 0.0 0.0 67.4 31.5 4.1 5.9 2.2 6.5 7.6 10.8 3.6 0.8 4.3 3.4 3.5 1.4 1.9 4.1 2.7 3.5 1.3 0.2 0.7 0.1 0.0 2.6 8.2 5.6 4.7 1.6 1.1 1.3 1.6 4.9 5.5 3.8 1.9
0.0 0.0 0.0 0.0 0.0 0.0 0.0 0.0 0.0 0.0 0.0 15.4 4.3 0.0 13.7 9.4 8.0 13.0 9.2 3.4 2.1 1.2 0.4 1.0 0.7 3.1 3.2 2.7 1.6 1.2 2.3 1.3 0.2 4.6 3.0 9.5 12.4 11.4 9.9 2.0 4.3 11.7 4.8 4.2 10.9 3.7 3.0
0.0 0.0 0.0 0.0 0.0 0.0 0.0 0.0 0.0 0.0 0.0 4.0 0.0 0.9 24.7 26.4 10.0 4.9 1.3 2.0 2.3 1.6 2.9 0.3 0.5 2.6 0.8 0.0 0.0 1.6 1.4 0.9 2.6 0.3 2.2 7.9 9.5 11.6 13.2 5.6 21.2 5.8 0.1 0.0 1.6 4.7 4.3
0.0 0.0 0.0 0.0 0.0 0.0 0.0 0.0 0.0 0.0 0.0 0.0 0.0 1.3 20.5 25.1 8.4 5.8 3.1 2.8 3.8 0.3 3.8 3.1 2.2 0.0 0.0 0.6 12.3 20.8 15.7 13.8 5.1 2.1 4.0 0.2 7.1 15.7 18.9 10.6 4.1 1.8 0.7 0.1 0.6 2.4 0.8
0.0 0.0 0.0 0.0 0.0 0.0 0.0 0.0 0.0 0.0 0.0 0.0 0.0 0.0 14.4 22.4 11.7 2.0 6.6 3.8 7.1 7.6 9.6 4.6 0.0 0.0 0.0 13.4 30.9 24.0 15.6 10.2 9.8 2.9 0.9 0.7 0.8 11.5 14.9 16.4 8.9 1.1 0.0 0.0 0.0 5.8 0.7
0.0 0.0 0.0 0.0 0.0 0.0 0.0 0.0 0.0 0.0 0.0 0.0 0.0 0.0 4.3 30.2 3.2 0.7 5.3 6.3 3.7 6.2 9.4 6.0 6.3 6.4 5.7 23.4 29.4 17.1 10.7 4.7 7.5 8.6 9.5 11.1 10.1 22.8 13.2 12.1 2.4 0.4 0.0 0.0 5.4 5.8 1.1
0.0 0.0 0.0 0.0 0.0 0.0 0.0 0.0 0.0 0.0 0.0 0.0 0.0 0.0 0.5 23.4 10.2 0.1 0.0 3.7 7.9 9.4 18.0 13.0 16.9 16.2 24.8 32.3 25.1 19.3 12.1 3.6 5.7 5.1 3.1 4.5 14.5 18.1 21.2 23.2 13.1 0.3 0.1 1.2 1.0 0.2 1.1
0.0 0.0 0.0 0.0 0.0 0.0 0.0 0.0 0.0 0.0 0.0 0.0 1.9 0.0 0.0 20.0 16.3 0.0 0.0 0.0 0.0 0.0 7.3 12.8 16.8 10.9 11.5 21.8 18.7 14.2 14.7 11.5 3.5 7.1 5.3 8.3 4.6 11.4 12.1 13.3 2.0 0.3 0.6 0.4 0.4 0.5 2.9

GFSGBSN_prec_snow_243.txt.gz
Snowfall_Accumulation
0.0 0.0 0.0 0.0 0.0 0.0 0.0 0.0 0.0 0.0 0.0 0.0 0.0 0.0 0.0 0.0 0.0 0.0 0.0 0.0 0.0 0.0 0.0 0.0 0.0 0.0 0.0 0.0 0.0 0.0 0.0 0.0 0.0 0.0 0.0 0.0 0.0 0.0 0.0 0.0 0.0 0.0 0.0 0.0 0.0 0.0 0.0
0.0 0.0 0.0 0.0 0.0 0.0 0.0 0.0 0.0 0.0 0.0 0.0 0.0 0.0 0.0 0.0 0.0 0.0 0.0 0.0 0.0 0.0 0.0 0.0 0.0 0.0 0.0 0.0 0.0 0.0 0.0 0.0 0.0 0.0 0.0 0.0 0.0 0.0 0.0 0.0 0.0 0.0 0.0 0.0 0.0 0.0 0.0
0.0 0.0 0.0 0.0 0.0 0.0 0.0 0.0 0.0 0.0 0.0 0.0 0.0 0.0 0.0 0.0 0.0 0.0 0.0 0.0 0.0 0.0 0.0 0.0 0.0 0.0 0.0 0.0 0.0 0.0 0.0 0.0 0.0 0.0 0.0 0.0 0.0 0.0 0.0 0.0 0.0 0.0 0.0 0.0 0.0 0.0 0.0
0.0 0.0 0.0 0.0 0.0 0.0 0.0 0.0 0.0 0.0 0.0 0.0 0.0 0.0 0.0 0.0 0.0 0.0 0.0 0.0 0.0 0.0 0.0 0.0 0.0 0.0 0.0 0.0 0.0 0.0 0.0 0.0 0.0 0.0 0.0 0.0 0.0 0.0 0.0 0.0 0.0 0.0 0.0 0.0 0.0 0.0 0.0
0.0 0.0 0.0 0.0 0.0 0.0 0.0 0.0 0.0 0.0 0.0 0.0 0.0 0.0 0.0 0.0 0.0 0.0 0.0 0.0 0.0 0.0 0.0 0.0 0.0 0.0 0.0 0.0 0.0 0.0 0.0 0.0 0.0 0.0 0.0 0.0 0.0 0.0 0.0 0.0 0.0 0.0 0.0 0.0 0.0 0.0 0.0
0.0 0.0 0.0 0.0 0.0 0.0 0.0 0.0 0.0 0.0 0.0 0.0 0.0 0.0 0.0 0.0 0.0 0.0 0.0 0.0 0.0 0.0 0.0 0.0 0.0 6.6 0.0 0.0 0.0 0.0 0.0 0.0 0.0 0.0 0.0 0.0 0.0 0.0 0.0 0.0 0.0 0.0 0.0 0.0 0.0 0.0 0.0
0.0 0.0 0.0 0.0 0.0 0.0 0.0 0.0 0.0 0.0 0.0 0.0 0.0 0.0 0.0 0.0 0.0 0.0 0.0 0.0 0.0 0.0 0.0 0.0 0.0 0.0 0.0 0.0 0.0 0.0 0.0 0.0 0.0 0.0 0.0 0.0 0.0 0.0 0.0 0.0 0.0 0.0 0.0 0.0 0.0 0.0 0.0
0.0 0.0 0.0 0.0 0.0 0.0 0.0 0.0 0.0 0.0 0.0 0.0 0.0 0.0 0.0 0.0 0.0 0.0 0.0 0.0 0.0 0.0 0.0 0.0 0.0 0.0 0.0 0.0 0.0 0.0 0.0 0.0 0.0 0.0 0.0 0.0 1.3 0.0 0.0 0.0 0.0 0.0 0.0 0.0 0.0 0.0 0.0
0.0 0.0 0.0 0.0 0.0 0.0 0.0 0.0 0.0 0.0 0.0 0.0 0.0 0.0 0.0 0.0 0.0 0.0 0.0 0.0 0.0 0.0 0.9 0.0 0.0 0.0 0.0 0.0 0.0 0.0 0.0 0.0 0.0 4.7 0.0 4.0 0.0 0.0 0.0 0.0 0.0 0.0 0.0 0.0 0.0 0.0 0.0
0.0 0.0 0.0 0.0 0.0 0.0 0.0 0.0 0.0 0.0 0.0 0.0 0.0 0.0 0.0 0.0 0.0 0.0 0.0 0.0 0.0 0.0 4.2 0.0 0.0 0.0 0.0 0.0 0.0 0.0 0.0 0.0 0.0 0.0 0.0 0.0 0.0 0.0 0.0 0.0 0.0 0.0 0.0 0.0 0.0 0.0 0.0
0.0 0.0 0.0 0.0 0.0 0.0 0.0 0.0 0.0 0.0 0.0 0.0 0.0 0.0 0.0 0.0 0.0 0.0 0.0 0.0 0.0 0.0 62.4 0.2 0.0 0.0 0.0 0.0 0.0 0.0 0.0 0.0 2.7 0.0 0.0 7.3 0.0 0.0 0.0 0.0 0.0 0.0 0.0 0.0 0.0 0.0 0.0
0.0 0.0 0.0 0.0 0.0 0.0 0.0 0.0 0.0 0.0 0.0 0.0 0.0 0.0 0.0 0.0 0.0 0.0 0.0 0.0 0.0 46.9 57.4 0.1 0.0 0.0 0.0 0.0 0.0 0.0 0.0 0.0 0.0 0.3 0.0 7.2 0.0 0.0 0.0 0.0 0.0 0.0 0.0 0.0 0.0 0.0 0.0
0.0 0.0 0.0 0.0 0.0 0.0 0.0 0.0 0.0 0.0 0.0 0.0 0.0 0.0 0.0 0.0 0.0 0.0 0.0 0.0 52.9 69.8 0.0 0.0 0.1 0.2 0.6 0.2 0.0 0.0 0.0 1.6 6.2 14.5 10.0 0.0 0.8 0.0 0.0 0.0 0.0 0.0 0.0 4.0 3.2 2.2 2.2
0.0 0.0 0.0 0.0 0.0 0.0 0.0 0.0 0.0 0.0 0.0 0.0 0.0 0.0 0.0 0.0 0.0 0.0 0.0 17.0 71.9 2.6 0.2 0.0 0.0 0.0 0.6 1.1 1.0 1.6 1.4 3.2 3.9 3.9 6.6 5.8 4.0 0.0 0.0 0.0 0.1 0.0 0.0 4.8 6.4 1.6 0.0
0.0 0.0 0.0 0.0 0.0 0.0 0.0 0.0 0.0 0.0 0.0 0.0 0.0 0.0 0.0 0.0 0.0 0.0 10.8 70.7 46.7 0.8 0.9 0.6 0.0 0.1 0.2 0.8 2.8 4.3 3.5 4.5 4.4 5.7 14.0 10.3 3.6 0.0 0.0 0.0 0.2 0.8 2.9 0.3 3.6 0.4 0.6
0.0 0.0 0.0 0.0 0.0 0.0 0.0 0.0 0.0 0.0 0.0 0.0 0.0 0.0 0.0 0.0 0.0 0.0 26.0 43.6 7.8 0.0 0.1 0.1 1.2 0.4 0.8 0.6 1.9 3.7 9.1 7.6 4.4 7.2 11.2 6.6 6.3 0.0 0.0 0.0 0.0 0.9 0.0 4.5 4.8 15.8 5.5
0.0 0.0 0.0 0.0 0.0 0.0 0.0 0.0 0.0 0.0 0.0 0.0 0.0 6.7 0.0 0.0 0.0 16.3 63.4 17.4 2.8 0.0 0.0 0.9 1.2 0.4 0.2 0.7 0.7 3.4 5.9 7.2 4.3 4.3 4.5 9.7 10.9 0.8 1.8 1.8 1.1 2.0 7.2 2.2 9.9 9.3 8.8
0.0 0.0 0.0 0.0 0.0 0.0 0.0 0.0 0.0 0.0 0.0 0.0 0.0 32.2 0.0 0.0 36.7 40.6 35.2 5.1 0.3 0.1 0.0 0.4 0.3 0.4 0.5 0.9 1.6 3.8 5.5 2.2 0.0 1.8 4.9 9.9 14.8 6.2 2.1 0.0 0.0 0.0 1.6 1.4 26.1 17.6 8.7
0.0 0.0 0.0 0.0 0.0 0.0 0.0 0.0 0.0 0.0 0.0 0.0 14.3 17.0 0.0 0.0 42.3 31.6 1.9 2.0 0.5 0.9 0.9 1.0 1.9 1.3 0.4 0.3 2.5 0.6 1.0 0.0 0.1 1.6 4.6 5.8 7.9 12.1 2.8 1.4 2.8 6.6 8.8 13.2 14.2 11.7 9.2
0.0 0.0 0.0 0.0 0.0 0.0 0.0 0.0 0.0 0.0 0.0 0.0 9.5 62.5 17.3 0.0 2.5 9.3 12.1 8.7 6.7 0.9 1.0 0.8 2.0 1.6 1.6 3.1 1.8 0.7 0.3 0.6 0.0 0.1 0.0 0.0 9.4 12.3 13.5 10.8 12.3 14.1 10.1 11.4 14.4 23.1 11.2
0.0 0.0 0.0 0.0 0.0 0.0 0.0 0.0 0.0 0.0 0.0 0.0 26.1 48.6 1.4 42.2 35.9 8.7 7.3 7.0 4.6 4.4 0.3 1.1 1.6 1.3 3.4 4.7 3.7 2.6 1.3 0.3 0.0 0.0 0.0 4.8 13.3 10.8 6.8 3.0 2.1 4.2 4.7 5.4 11.1 7.7 9.7
0.0 0.0 0.0 0.0 0.0 0.0 0.0 0.0 0.0 0.0 0.0 0.0 67.8 31.6 4.2 6.0 2.3 6.7 7.8 10.9 3.7 0.8 4.4 3.6 3.7 1.4 2.4 5.8 4.4 5.0 2.4 0.7 1.0 0.5 0.7 3.2 8.4 5.8 4.7 1.6 1.2 1.4 1.6 4.9 5.5 3.8 2.2
0.0 0.0 0.0 0.0 0.0 0.0 0.0 0.0 0.0 0.0 0.0 15.4 4.3 0.0 15.3 9.4 8.2 13.2 9.2 3.5 2.2 1.4 0.4 1.0 0.8 3.2 3.4 2.7 1.6 1.2 2.3 1.3 0.4 4.6 3.0 10.1 12.9 12.0 9.9 2.0 4.4 11.8 4.8 4.2 10.9 3.7 3.0
0.0 0.0 0.0 0.0 0.0 0.0 0.0 0.0 0.0 0.0 0.0 4.0 0.0 0.9 26.2 27.0 10.2 5.1 1.3 2.0 2.3 1.6 3.0 0.3 0.5 2.7 0.8 0.0 0.0 1.6 1.4 0.9 2.6 0.3 2.2 7.9 9.5 12.1 13.3 5.7 21.3 5.8 0.1 0.0 1.6 4.7 4.3
0.0 0.0 0.0 0.0 0.0 0.0 0.0 0.0 0.0 0.0 0.0 0.0 0.0 1.3 22.5 26.4 8.6 5.9 3.3 3.1 3.9 0.3 3.8 3.2 2.2 0.0 0.0 0.6 12.5 20.8 15.7 13.8 5.1 2.1 4.0 0.2 7.3 16.2 19.2 10.7 4.1 1.8 0.7 0.1 0.6 2.4 0.8
0.0 0.0 0.0 0.0 0.0 0.0 0.0 0.0 0.0 0.0 0.0 0.0 0.0 0.0 16.4 25.0 12.0 2.2 7.0 4.2 7.5 7.9 9.7 4.6 0.0 0.0 0.3 14.5 31.7 24.2 15.6 10.2 9.8 3.0 0.9 0.7 0.8 12.1 15.1 16.6 8.9 1.1 0.0 0.0 0.0 5.9 0.7
0.0 0.0 0.0 0.0 0.0 0.0 0.0 0.0 0.0 0.0 0.0 0.0 0.0 0.0 4.8 32.6 3.7 1.0 5.7 6.9 4.5 7.1 10.3 6.2 6.6 7.0 5.7 24.3 30.7 17.3 10.8 4.7 7.5 8.6 9.5 11.3 10.2 23.1 13.4 12.4 2.4 0.4 0.0 0.0 5.4 5.8 1.1
0.0 0.0 0.0 0.0 0.0 0.0 0.0 0.0 0.0 0.0 0.0 0.0 0.0 0.0 0.5 24.8 10.6 0.1 0.0 3.8 8.1 9.4 18.1 13.0 17.9 16.2 24.8 33.3 25.7 19.6 12.4 3.8 5.9 5.1 3.1 4.5 15.3 18.6 21.3 23.8 13.3 0.3 0.1 1.2 1.0 0.2 1.1
0.0 0.0 0.0 0.0 0.0 0.0 0.0 0.0 0.0 0.0 0.0 0.0 2.0 0.0 0.0 21.1 16.6 0.0 0.0 0.0 0.0 0.0 7.7 13.3 17.8 11.3 13.5 24.9 19.9 17.0 16.9 13.1 4.1 8.4 5.8 9.1 4.9 12.0 12.1 13.3 2.0 0.3 0.6 0.4 0.4 0.5 2.9

GFSGBSN_prec_snow_249.txt.gz
Snowfall_Accumulation
0.0 0.0 0.0 0.0 0.0 0.0 0.0 0.0 0.0 0.0 0.0 0.0 0.0 0.0 0.0 0.0 0.0 0.0 0.0 0.0 0.0 0.0 0.0 0.0 0.0 0.0 0.0 0.0 0.0 0.0 0.0 0.0 0.0 0.0 0.0 0.0 0.0 0.0 0.0 0.0 0.0 0.0 0.0 0.0 0.0 0.0 0.0
0.0 0.0 0.0 0.0 0.0 0.0 0.0 0.0 0.0 0.0 0.0 0.0 0.0 0.0 0.0 0.0 0.0 0.0 0.0 0.0 0.0 0.0 0.0 0.0 0.0 0.0 0.0 0.0 0.0 0.0 0.0 0.0 0.0 0.0 0.0 0.0 0.0 0.0 0.0 0.0 0.0 0.0 0.0 0.0 0.0 0.0 0.0
0.0 0.0 0.0 0.0 0.0 0.0 0.0 0.0 0.0 0.0 0.0 0.0 0.0 0.0 0.0 0.0 0.0 0.0 0.0 0.0 0.0 0.0 0.0 0.0 0.0 0.0 0.0 0.0 0.0 0.0 0.0 0.0 0.0 0.0 0.0 0.0 0.0 0.0 0.0 0.0 0.0 0.0 0.0 0.0 0.0 0.0 0.0
0.0 0.0 0.0 0.0 0.0 0.0 0.0 0.0 0.0 0.0 0.0 0.0 0.0 0.0 0.0 0.0 0.0 0.0 0.0 0.0 0.0 0.0 0.0 0.0 0.0 0.0 0.0 0.0 0.0 0.0 0.0 0.0 0.0 0.0 0.0 0.0 0.0 0.0 0.0 0.0 0.0 0.0 0.0 0.0 0.0 0.0 0.0
0.0 0.0 0.0 0.0 0.0 0.0 0.0 0.0 0.0 0.0 0.0 0.0 0.0 0.0 0.0 0.0 0.0 0.0 0.0 0.0 0.0 0.0 0.0 0.0 0.0 0.0 0.0 0.0 0.0 0.0 0.0 0.0 0.0 0.0 0.0 0.0 0.0 0.0 0.0 0.0 0.0 0.0 0.0 0.0 0.0 0.0 0.0
0.0 0.0 0.0 0.0 0.0 0.0 0.0 0.0 0.0 0.0 0.0 0.0 0.0 0.0 0.0 0.0 0.0 0.0 0.0 0.0 0.0 0.0 0.0 0.0 0.0 6.6 0.0 0.0 0.0 0.0 0.0 0.0 0.0 0.0 0.0 0.0 0.0 0.0 0.0 0.0 0.0 0.0 0.0 0.0 0.0 0.0 0.0
0.0 0.0 0.0 0.0 0.0 0.0 0.0 0.0 0.0 0.0 0.0 0.0 0.0 0.0 0.0 0.0 0.0 0.0 0.0 0.0 0.0 0.0 0.0 0.0 0.0 0.0 0.0 0.0 0.0 0.0 0.0 0.0 0.0 0.0 0.0 0.0 0.0 0.0 0.0 0.0 0.0 0.0 0.0 0.0 0.0 0.0 0.0
0.0 0.0 0.0 0.0 0.0 0.0 0.0 0.0 0.0 0.0 0.0 0.0 0.0 0.0 0.0 0.0 0.0 0.0 0.0 0.0 0.0 0.0 0.0 0.0 0.0 0.0 0.0 0.0 0.0 0.0 0.0 0.0 0.0 0.0 0.0 0.0 1.3 0.0 0.0 0.0 0.0 0.0 0.0 0.0 0.0 0.0 0.0
0.0 0.0 0.0 0.0 0.0 0.0 0.0 0.0 0.0 0.0 0.0 0.0 0.0 0.0 0.0 0.0 0.0 0.0 0.0 0.0 0.0 0.0 0.9 0.0 0.0 0.0 0.0 0.0 0.0 0.0 0.0 0.0 0.0 4.7 0.0 4.0 0.0 0.0 0.0 0.0 1.5 0.8 0.0 0.0 0.0 0.0 0.0
0.0 0.0 0.0 0.0 0.0 0.0 0.0 0.0 0.0 0.0 0.0 0.0 0.0 0.0 0.0 0.0 0.0 0.0 0.0 0.0 0.0 0.0 4.2 0.0 0.0 0.0 0.0 0.0 0.0 0.0 0.0 0.0 0.0 0.0 0.0 0.4 0.0 0.0 0.0 2.5 0.0 1.9 0.0 0.0 0.0 0.0 0.0
0.0 0.0 0.0 0.0 0.0 0.0 0.0 0.0 0.0 0.0 0.0 0.0 0.0 0.0 0.0 0.0 0.0 0.0 0.0 0.0 0.0 0.0 62.4 0.2 0.0 0.0 0.0 0.0 0.0 0.0 0.0 0.0 2.7 0.0 0.2 7.8 0.0 0.3 0.7 1.8 0.0 1.2 0.0 0.0 0.0 0.0 0.0
0.0 0.0 0.0 0.0 0.0 0.0 0.0 0.0 0.0 0.0 0.0 0.0 0.0 0.0 0.0 0.0 0.0 0.0 0.0 0.0 0.0 46.9 57.4 0.1 0.0 0.0 0.0 0.0 0.0 0.0 0.0 0.0 0.0 0.5 0.0 7.4 0.0 1.2 0.0 0.0 0.0 0.0 0.0 0.0 0.0 0.0 0.7
0.0 0.0 0.0 0.0 0.0 0.0 0.0 0.0 0.0 0.0 0.0 0.0 0.0 0.0 0.0 0.0 0.0 0.0 0.0 0.0 52.9 69.8 0.0 0.0 0.1 0.2 0.6 0.2 0.0 0.0 0.0 1.6 6.2 16.1 10.0 0.0 0.8 0.0 0.0 0.0 0.0 1.2 2.3 8.9 6.1 4.9 4.0
0.0 0.0 0.0 0.0 0.0 0.0 0.0 0.0 0.0 0.0 0.0 0.0 0.0 0.0 0.0 0.0 0.0 0.0 0.0 17.0 71.9 2.6 0.2 0.0 0.0 0.0 0.6 1.1 1.0 1.6 1.4 3.2 3.9 4.9 7.4 6.1 4.0 0.0 0.0 0.7 0.1 0.0 1.7 11.9 11.0 3.7 1.2
0.0 0.0 0.0 0.0 0.0 0.0 0.0 0.0 0.0 0.0 0.0 0.0 0.0 0.0 0.0 0.0 0.0 0.0 10.8 70.7 46.7 0.8 0.9 0.6 0.0 0.1 0.2 0.8 2.8 4.3 3.5 4.5 4.4 5.8 14.0 10.3 3.6 0.0 0.0 0.0 0.2 0.8 6.6 0.3 7.5 3.3 1.6
0.0 0.0 0.0 0.0 0.0 0.0 0.0 0.0 0.0 0.0 0.0 0.0 0.0 0.0 0.0 0.0 0.0 0.0 26.0 43.6 7.8 0.0 0.1 0.2 1.4 0.6 1.0 0.6 1.9 3.7 9.1 7.6 4.5 7.2 11.2 6.6 6.6 0.0 0.0 0.0 0.0 0.9 0.0 8.5 10.3 22.0 10.8
0.0 0.0 0.0 0.0 0.0 0.0 0.0 0.0 0.0 0.0 0.0 0.0 0.0 6.7 0.0 0.0 0.0 16.3 63.4 17.4 2.8 0.0 0.0 0.9 1.2 0.4 0.2 1.6 0.7 3.4 5.9 7.2 4.5 4.3 4.5 9.7 11.6 0.8 3.1 3.0 3.1 3.5 9.6 6.7 15.7 13.9 11.0
0.0 0.0 0.0 0.0 0.0 0.0 0.0 0.0 0.0 0.0 0.0 0.0 0.0 32.2 0.0 0.0 36.7 40.6 35.2 5.1 0.4 0.1 0.0 0.4 0.4 0.5 0.9 0.9 1.6 3.8 5.8 2.6 0.0 1.8 5.2 9.9 15.2 6.3 2.6 2.4 1.7 0.8 3.3 2.7 30.7 20.9 10.8
0.0 0.0 0.0 0.0 0.0 0.0 0.0 0.0 0.0 0.0 0.0 0.0 14.3 17.0 0.0 0.0 42.3 31.6 1.9 2.0 0.5 0.9 0.9 1.0 1.9 1.3 0.4 0.3 2.6 0.8 1.0 0.0 0.1 1.6 4.7 6.3 8.3 12.3 2.8 4.1 5.7 9.9 12.5 17.4 18.0 15.0 11.8
0.0 0.0 0.0 0.0 0.0 0.0 0.0 0.0 0.0 0.0 0.0 0.0 9.5 62.5 17.3 0.0 2.5 9.3 12.1 8.7 6.7 0.9 1.0 0.8 2.0 1.6 1.6 3.1 1.9 0.7 0.3 0.6 0.0 0.1 0.0 0.0 10.0 12.4 13.7 11.9 13.8 16.5 11.4 12.3 17.0 25.5 13.0
0.0 0.0 0.0 0.0 0.0 0.0 0.0 0.0 0.0 0.0 0.0 0.0 26.1 48.6 1.4 42.2 35.9 8.7 7.3 7.0 4.6 4.4 0.3 1.1 1.6 1.3 3.5 4.7 3.7 2.7 1.3 0.3 0.0 0.0 0.4 5.0 14.0 11.3 7.0 3.1 2.4 4.7 4.7 5.9 12.1 8.7 10.5
0.0 0.0 0.0 0.0 0.0 0.0 0.0 0.0 0.0 0.0 0.0 0.0 67.8 31.6 4.2 6.0 2.3 6.7 7.8 10.9 3.7 0.8 4.5 3.6 3.7 1.4 2.4 5.8 4.4 5.0 2.4 0.7 1.0 0.5 0.7 3.2 9.3 5.8 4.7 1.6 1.2 1.6 1.7 4.9 5.5 3.9 2.4
0.0 0.0 0.0 0.0 0.0 0.0 0.0 0.0 0.0 0.0 0.0 15.4 4.3 0.0 15.3 9.4 8.2 13.3 9.2 3.5 2.2 1.4 0.4 1.0 0.8 3.2 3.4 2.7 1.6 1.2 2.3 1.3 0.4 4.6 3.0 10.2 12.9 12.0 9.9 2.0 4.4 11.8 4.8 4.2 10.9 3.8 3.2
0.0 0.0 0.0 0.0 0.0 0.0 0.0 0.0 0.0 0.0 0.0 4.0 0.0 0.9 27.1 27.0 10.2 5.1 1.3 2.0 2.3 1.6 3.1 0.3 0.5 2.7 0.8 0.0 0.0 1.6 1.4 0.9 2.6 0.3 2.2 7.9 9.5 12.1 13.3 5.7 21.3 5.8 0.1 0.0 1.6 4.7 4.3
0.0 0.0 0.0 0.0 0.0 0.0 0.0 0.0 0.0 0.0 0.0 0.0 0.0 1.3 23.9 27.1 8.6 5.9 3.3 3.1 3.9 0.3 3.8 3.2 2.2 0.0 0.0 0.7 12.5 20.8 15.7 13.8 5.1 2.1 4.0 0.2 7.3 16.2 19.2 10.7 4.1 1.8 0.8 0.1 0.6 2.4 0.8
0.0 0.0 0.0 0.0 0.0 0.0 0.0 0.0 0.0 0.0 0.0 0.0 0.0 0.0 17.1 25.9 12.0 2.2 7.0 4.3 7.6 7.9 9.7 4.6 0.0 0.0 0.5 14.5 31.7 24.5 15.7 10.2 9.8 3.0 0.9 0.8 0.8 12.1 15.2 16.7 8.9 1.1 0.0 0.0 0.0 5.9 0.7
0.0 0.0 0.0 0.0 0.0 0.0 0.0 0.0 0.0 0.0 0.0 0.0 0.0 0.0 5.4 33.2 3.7 1.0 5.7 7.0 4.6 7.1 10.6 6.2 6.6 7.0 5.7 24.3 30.8 17.3 10.8 4.7 7.5 8.6 9.6 11.3 10.6 24.2 13.4 12.6 2.4 0.4 0.0 0.0 5.4 5.8 1.1
0.0 0.0 0.0 0.0 0.0 0.0 0.0 0.0 0.0 0.0 0.0 0.0 0.0 0.0 0.5 25.4 10.6 0.1 0.0 3.8 8.1 9.4 18.4 13.0 18.1 16.3 24.9 33.8 26.2 20.4 12.7 5.2 6.1 5.1 3.1 4.5 15.3 18.6 21.8 24.2 13.5 0.3 0.1 1.4 1.1 0.2 1.1
0.0 0.0 0.0 0.0 0.0 0.0 0.0 0.0 0.0 0.0 0.0 0.0 2.0 0.0 0.0 22.0 16.8 0.0 0.0 0.0 0.0 0.0 7.8 13.5 18.0 11.3 13.5 24.9 19.9 17.0 16.9 13.1 4.1 8.4 6.2 9.2 5.9 12.7 12.7 13.4 2.0 0.3 0.6 0.4 0.4 0.5 2.9